Change the Weather History Date:

Sunday, June 16, 2013

  Actual Average Record
Temperature  
Mean Temperature 86 °F 82 °F  
Max Temperature 97 °F 92 °F 103 °F (1934)
Min Temperature 75 °F 73 °F 58 °F (1989)
Degree Days  
Heating Degree Days 0 0  
Month to date heating degree days 0 0  
Since 1 June heating degree days 0 0  
Since 1 July heating degree days 1354 1608  
Cooling Degree Days 21 17  
Month to date cooling degree days 275 260  
Year to date cooling degree days 839 848  
Since 1 June cooling degree days 275 260  
Growing Degree Days 36 (Base 50)    
Moisture  
Dew Point 71 °F    
Average Humidity 69    
Maximum Humidity 94    
Minimum Humidity 44    
Precipitation  
Precipitation 0.00 in 0.16 in 1.91 in (1964)
Month to date precipitation 1.15 2.58  
Year to date precipitation 17.42 18.83  
Sea Level Pressure  
Sea Level Pressure 29.96 in    
Wind  
Wind Speed 7 mph (South)    
Max Wind Speed 14 mph    
Max Gust Speed 20 mph    
Visibility 10 miles    
Events      
T = Trace of Precipitation, MM = Missing Value Source: NWS Daily Summary

Daily Weather History Graph

Daily Weather History Graph

Search for Another Location

Airport or City:

Trip Planner

Search our weather history database for the weather conditions in past years. The results will help you decide how hot, cold, wet, or windy it might be!

Date:

Astronomy

Jun. 16, 2013 Rise Set
Actual Time 6:22 AM CDT 8:29 PM CDT
Civil Twilight 5:54 AM CDT 8:57 PM CDT
Nautical Twilight 5:21 AM CDT 9:31 PM CDT
Astronomical Twilight 4:45 AM CDT 10:07 PM CDT
Moon 1:30 PM CDT (6/16) 1:01 AM CDT (6/16)
Length of Visible Light 15h 02m
Length of Day
14h 07m
Waxing Crescent, 50% of the Moon is Illuminated
Jun 16
Waxing Crescent
Jun 16
First Quarter
Jun 23
Full
Jun 29
Last Quarter
Jul 8
New

Hourly Weather History & Observations

Time (CDT) Temp. Heat Index Dew Point Humidity Pressure Visibility Wind Dir Wind Speed Gust Speed Precip Events Conditions
12:53 AM 81.0 °F 85.2 °F 72.0 °F 74% 29.95 in 10.0 mi South 8.1 mph - N/A   Clear
1:53 AM 80.1 °F 84.2 °F 73.0 °F 79% 29.94 in 10.0 mi South 5.8 mph - N/A   Clear
2:53 AM 78.1 °F - 72.0 °F 81% 29.95 in 10.0 mi South 3.5 mph - N/A   Clear
3:53 AM 77.0 °F - 72.0 °F 84% 29.94 in 10.0 mi SSW 3.5 mph - N/A   Scattered Clouds
4:02 AM 77.0 °F - 73.4 °F 89% 29.95 in 10.0 mi SSW 3.5 mph - N/A   Mostly Cloudy
4:11 AM 77.0 °F - 71.6 °F 83% 29.95 in 10.0 mi South 3.5 mph - N/A   Scattered Clouds
4:53 AM 75.9 °F - 73.0 °F 91% 29.95 in 10.0 mi South 4.6 mph - N/A   Scattered Clouds
5:03 AM 75.2 °F - 73.4 °F 94% 29.97 in 10.0 mi SSE 4.6 mph - N/A   Mostly Cloudy
5:11 AM 75.2 °F - 73.4 °F 94% 29.97 in 10.0 mi SSE 4.6 mph - N/A   Scattered Clouds
5:53 AM 75.0 °F - 73.0 °F 94% 29.97 in 10.0 mi SSE 4.6 mph - N/A   Clear
6:53 AM 75.0 °F - 73.0 °F 94% 29.99 in 10.0 mi Calm Calm - N/A   Clear
7:53 AM 78.1 °F - 75.0 °F 90% 30.00 in 10.0 mi SSE 3.5 mph - N/A   Clear
8:53 AM 80.1 °F 85.1 °F 75.0 °F 85% 30.01 in 10.0 mi South 4.6 mph - N/A   Partly Cloudy
9:16 AM 80.6 °F 86.2 °F 75.2 °F 84% 30.03 in 10.0 mi SSW 5.8 mph - N/A   Mostly Cloudy
9:53 AM 82.9 °F 90.2 °F 75.0 °F 77% 30.02 in 10.0 mi South 4.6 mph - N/A   Mostly Cloudy
10:13 AM 82.4 °F 88.2 °F 73.4 °F 74% 30.03 in 10.0 mi SSW 6.9 mph - N/A   Mostly Cloudy
10:53 AM 84.9 °F 91.4 °F 73.0 °F 67% 30.01 in 10.0 mi SW 5.8 mph - N/A   Mostly Cloudy
11:53 AM 89.1 °F 95.0 °F 71.1 °F 55% 30.01 in 10.0 mi WSW 8.1 mph - N/A   Scattered Clouds
12:53 PM 91.0 °F 95.6 °F 69.1 °F 48% 29.99 in 10.0 mi SSW 9.2 mph - N/A   Scattered Clouds
1:53 PM 93.0 °F 97.4 °F 68.0 °F 44% 29.97 in 10.0 mi Variable 5.8 mph - N/A   Partly Cloudy
2:53 PM 93.9 °F 98.6 °F 68.0 °F 43% 29.95 in 10.0 mi SSW 6.9 mph - N/A   Partly Cloudy
3:53 PM 95.0 °F 99.0 °F 66.9 °F 40% 29.93 in 10.0 mi South 9.2 mph - N/A   Clear
4:53 PM 96.1 °F 99.3 °F 66.0 °F 37% 29.92 in 10.0 mi Variable 6.9 mph - N/A   Clear
5:53 PM 96.1 °F 98.8 °F 64.9 °F 36% 29.90 in 10.0 mi SSE 8.1 mph - N/A   Clear
6:53 PM 93.9 °F 97.5 °F 66.9 °F 41% 29.88 in 10.0 mi South 11.5 mph - N/A   Clear
7:53 PM 91.9 °F 95.9 °F 68.0 °F 45% 29.88 in 10.0 mi SSE 8.1 mph - N/A   Clear
8:53 PM 89.1 °F 93.7 °F 69.1 °F 52% 29.89 in 10.0 mi South 6.9 mph - N/A   Clear
9:53 PM 87.1 °F 92.0 °F 70.0 °F 57% 29.91 in 10.0 mi South 8.1 mph - N/A   Clear
10:53 PM 84.9 °F 90.1 °F 71.1 °F 63% 29.94 in 10.0 mi South 10.4 mph - N/A   Clear
11:53 PM 84.0 °F 90.2 °F 73.0 °F 69% 29.95 in 10.0 mi South 12.7 mph - N/A   Clear